FW6620 Weather Reports


time (UTC)temp
C
wind
direction
speed
KPH
gust
KPH
rain 1hr
cm
rain 24hr
cm
rain mn
cm
humidity
%
barometer
mb
20260902211045 36 0 0.0 4.8 0.00 0.00 0.00 47 1011.9
20260902210546 36 57 0.0 4.8 0.00 0.00 0.00 46 1011.9
20260902210135 36 57 0.0 6.4 0.00 0.00 0.00 48 1011.9
20260902205545 35 0 0.0 6.4 0.00 0.00 0.00 48 1012.0
20260902205045 35 0 0.0 4.8 0.00 0.00 0.00 49 1012.2
20260902204556 34 58 1.6 4.8 0.00 0.00 0.00 53 1012.2
20260902204046 33 0 0.0 4.8 0.00 0.00 0.00 58 1012.3
20260902203545 33 0 0.0 4.8 0.00 0.00 0.00 59 1012.4
20260902203053 32 0 0.0 3.2 0.00 0.00 0.00 69 1012.5
20260902202546 32 57 0.0 1.6 0.00 0.00 0.00 69 1012.7
20260902202049 32 0 0.0 3.2 0.00 0.00 0.00 71 1012.7
20260902201619 32 0 0.0 3.2 0.00 0.00 0.00 72 1012.8
20260902201045 33 57 0.0 3.2 0.00 0.00 0.00 67 1012.9
20260902200546 35 0 0.0 3.2 0.00 0.00 0.00 64 1013.0
20260902200106 36 57 0.0 3.2 0.00 0.00 0.00 56 1012.9
20260902195546 36 0 0.0 6.4 0.00 0.00 0.00 47 1013.0
20260902195045 36 57 1.6 6.4 0.00 0.00 0.00 47 1013.1
20260902194600 36 0 0.0 4.8 0.00 0.00 0.00 47 1013.1
20260902194050 36 53 0.0 3.2 0.00 0.00 0.00 47 1013.1
20260902193545 36 0 0.0 4.8 0.00 0.00 0.00 51 1013.1
20260902193101 36 0 0.0 4.8 0.00 0.00 0.00 48 1013.2
20260902192545 36 0 0.0 0.0 0.00 0.00 0.00 47 1013.4
20260902192046 36 0 0.0 0.0 0.00 0.00 0.00 48 1013.4
20260902191602 36 0 0.0 0.0 0.00 0.00 0.00 48 1013.5
20260902191045 36 0 0.0 0.0 0.00 0.00 0.00 49 1013.5
20260902190548 36 0 0.0 0.0 0.00 0.00 0.00 47 1013.7
20260902190124 36 0 0.0 1.6 0.00 0.00 0.00 47 1013.6
20260902185546 36 0 0.0 4.8 0.00 0.00 0.00 47 1013.8
20260902185046 37 0 0.0 4.8 0.00 0.00 0.00 45 1013.8
20260902184607 37 0 1.6 9.7 0.00 0.00 0.00 44 1013.9
20260902184046 37 0 1.6 9.7 0.00 0.00 0.00 46 1013.9
20260902183546 36 57 1.6 4.8 0.00 0.00 0.00 47 1014.1
20260902183054 36 57 0.0 4.8 0.00 0.00 0.00 49 1014.1
20260902182545 36 0 0.0 3.2 0.00 0.00 0.00 51 1014.2
20260902182046 36 0 0.0 3.2 0.00 0.00 0.00 51 1014.3
20260902181623 36 0 0.0 3.2 0.00 0.00 0.00 48 1014.5
20260902181045 36 55 0.0 3.2 0.00 0.00 0.00 49 1014.4
20260902180545 36 55 0.0 3.2 0.00 0.00 0.00 50 1014.5
20260902180100 36 55 0.0 4.8 0.00 0.00 0.00 49 1014.6
20260902175545 36 0 0.0 4.8 0.00 0.00 0.00 50 1014.7
20260902175045 36 55 0.0 6.4 0.00 0.00 0.00 48 1014.8
20260902174554 36 55 0.0 6.4 0.00 0.00 0.00 51 1015.0
20260902174049 36 0 1.6 9.7 0.00 0.00 0.00 50 1015.1
20260902173546 36 0 1.6 9.7 0.00 0.00 0.00 51 1015.3
20260902173102 36 70 0.0 6.4 0.00 0.00 0.00 52 1015.3
20260902172545 35 0 0.0 9.7 0.00 0.00 0.00 50 1015.4
20260902172045 35 0 1.6 9.7 0.00 0.00 0.00 50 1015.5
20260902171618 35 0 1.6 9.7 0.00 0.00 0.00 51 1015.6
20260902171045 35 0 0.0 4.8 0.00 0.00 0.00 53 1015.6
20260902170545 35 0 0.0 6.4 0.00 0.00 0.00 54 1015.6
20260902170103 35 0 1.6 6.4 0.00 0.00 0.00 55 1015.7
20260902165546 34 56 1.6 9.7 0.00 0.00 0.00 55 1015.8
20260902165049 34 55 1.6 9.7 0.00 0.00 0.00 55 1015.8
20260902164604 33 60 1.6 9.7 0.00 0.00 0.00 56 1015.9
20260902164045 33 70 0.0 6.4 0.00 0.00 0.00 57 1015.9
20260902163547 33 0 0.0 3.2 0.00 0.00 0.00 58 1016.0
20260902163057 33 58 0.0 4.8 0.00 0.00 0.00 60 1016.0
20260902162545 32 0 1.6 4.8 0.00 0.00 0.00 60 1016.1
20260902162045 32 58 0.0 4.8 0.00 0.00 0.00 60 1016.1
20260902161605 32 0 0.0 6.4 0.00 0.00 0.00 61 1016.1
20260902161045 32 55 1.6 6.4 0.00 0.00 0.00 62 1016.1
20260902160546 31 0 0.0 6.4 0.00 0.00 0.00 63 1016.0
20260902160058 31 57 1.6 6.4 0.00 0.00 0.00 63 1016.1
20260902155546 31 64 0.0 3.2 0.00 0.00 0.00 66 1016.1
20260902155045 31 0 0.0 3.2 0.00 0.00 0.00 67 1016.2
20260902154556 31 0 0.0 3.2 0.00 0.00 0.00 69 1016.1
20260902154045 30 0 0.0 3.2 0.00 0.00 0.00 69 1016.2
20260902153545 30 0 0.0 3.2 0.00 0.00 0.00 69 1016.2
20260902153055 30 0 0.0 3.2 0.00 0.00 0.00 70 1016.2
20260902152544 30 0 0.0 3.2 0.00 0.00 0.00 70 1016.3
20260902152048 30 0 0.0 3.2 0.00 0.00 0.00 71 1016.3
20260902151553 29 0 0.0 1.6 0.00 0.00 0.00 72 1016.3
20260902151045 29 0 0.0 3.2 0.00 0.00 0.00 73 1016.2
20260902150544 28 0 0.0 3.2 0.00 0.00 0.00 75 1016.3
20260902145546 28 0 0.0 3.2 0.00 0.00 0.00 76 1016.1
20260902145045 28 0 0.0 0.0 0.00 0.00 0.00 77 1016.2
20260902144602 28 0 0.0 0.0 0.00 0.00 0.00 77 1016.3
20260902144046 27 0 0.0 0.0 0.00 0.00 0.00 77 1016.3
20260902143546 27 0 0.0 1.6 0.00 0.00 0.00 77 1016.3
20260902143059 27 0 0.0 1.6 0.00 0.00 0.00 77 1016.3
20260902142545 27 0 0.0 0.0 0.00 0.00 0.00 78 1016.3
20260902142046 27 0 0.0 3.2 0.00 0.00 0.00 79 1016.3
20260902141604 27 0 0.0 3.2 0.00 0.00 0.00 79 1016.3
20260902141045 27 64 0.0 1.6 0.00 0.00 0.00 79 1016.4
20260902140545 27 0 0.0 4.8 0.00 0.00 0.00 79 1016.4
20260902140100 27 0 0.0 4.8 0.00 0.00 0.00 80 1016.4
20260902135545 26 64 0.0 4.8 0.00 0.00 0.00 81 1016.4
20260902135045 26 0 0.0 3.2 0.00 0.00 0.00 82 1016.3
20260902134612 26 0 0.0 3.2 0.00 0.00 0.00 82 1016.3
20260902134045 26 0 0.0 0.0 0.00 0.00 0.00 84 1016.4
20260902133547 25 0 0.0 0.0 0.00 0.00 0.00 84 1016.3
20260902133055 25 0 0.0 0.0 0.00 0.00 0.00 85 1016.2
20260902132546 25 0 0.0 0.0 0.00 0.00 0.00 86 1016.2
20260902132045 25 0 0.0 0.0 0.00 0.00 0.00 87 1016.1
20260902131552 25 0 0.0 0.0 0.00 0.00 0.00 86 1016.0
20260902131048 24 0 0.0 0.0 0.00 0.00 0.00 85 1016.0
20260902130546 24 0 0.0 0.0 0.00 0.00 0.00 85 1016.0
20260902130059 24 0 0.0 0.0 0.00 0.00 0.00 85 1015.9
20260902125544 24 0 0.0 0.0 0.00 0.00 0.00 85 1015.9
20260902125048 24 0 0.0 0.0 0.00 0.00 0.00 85 1015.8
20260902124556 24 0 0.0 0.0 0.00 0.00 0.00 85 1015.8
20260902124046 24 0 0.0 0.0 0.00 0.00 0.00 85 1015.8
20260902123545 24 0 0.0 0.0 0.00 0.00 0.00 85 1015.7
20260902123059 24 0 0.0 0.0 0.00 0.00 0.00 85 1015.7
20260902122545 24 0 0.0 0.0 0.00 0.00 0.00 84 1015.7
20260902122045 24 0 0.0 0.0 0.00 0.00 0.00 84 1015.6
20260902121549 24 0 0.0 0.0 0.00 0.00 0.00 84 1015.6
20260902121046 24 0 0.0 0.0 0.00 0.00 0.00 84 1015.6
20260902120546 24 0 0.0 0.0 0.00 0.00 0.00 84 1015.6
20260902120101 24 0 0.0 0.0 0.00 0.00 0.00 84 1015.6
20260902115545 24 0 0.0 0.0 0.00 0.00 0.00 84 1015.5
20260902115045 24 0 0.0 0.0 0.00 0.00 0.00 84 1015.5
20260902114557 24 0 0.0 0.0 0.00 0.00 0.00 84 1015.4
20260902114046 24 0 0.0 0.0 0.00 0.00 0.00 84 1015.4
20260902113545 24 0 0.0 0.0 0.00 0.00 0.00 84 1015.4
20260902113054 24 0 0.0 0.0 0.00 0.00 0.00 83 1015.4
20260902112545 24 0 0.0 0.0 0.00 0.00 0.00 83 1015.3
20260902112045 24 0 0.0 0.0 0.00 0.00 0.00 83 1015.3
20260902111601 24 0 0.0 0.0 0.00 0.00 0.00 83 1015.3
20260902111046 24 0 0.0 0.0 0.00 0.00 0.00 83 1015.4
20260902110546 25 0 0.0 0.0 0.00 0.00 0.00 83 1015.4
20260902110057 25 0 0.0 0.0 0.00 0.00 0.00 82 1015.4
20260902105545 25 0 0.0 0.0 0.00 0.00 0.00 82 1015.4
20260902105046 25 0 0.0 1.6 0.00 0.00 0.00 82 1015.4
20260902104600 25 0 0.0 1.6 0.00 0.00 0.00 82 1015.3
20260902104047 25 0 0.0 0.0 0.00 0.00 0.00 83 1015.4
20260902103547 25 0 0.0 0.0 0.00 0.00 0.00 82 1015.4
20260902103108 25 0 0.0 0.0 0.00 0.00 0.00 82 1015.4
20260902102547 25 0 0.0 0.0 0.00 0.00 0.00 82 1015.4
20260902102047 25 0 0.0 0.0 0.00 0.00 0.00 81 1015.4
20260902101600 25 0 0.0 0.0 0.00 0.00 0.00 81 1015.4
20260902101047 25 0 0.0 0.0 0.00 0.00 0.00 81 1015.3
20260902100547 25 0 0.0 0.0 0.00 0.00 0.00 81 1015.3
20260902100058 25 0 0.0 0.0 0.00 0.00 0.00 81 1015.1
20260902095546 25 0 0.0 0.0 0.00 0.00 0.00 80 1015.3
20260902095046 26 0 0.0 0.0 0.00 0.00 0.00 80 1015.2
20260902094605 26 0 0.0 0.0 0.00 0.00 0.00 80 1015.2
20260902094047 26 0 0.0 0.0 0.00 0.00 0.00 80 1015.3
20260902093547 26 0 0.0 0.0 0.00 0.00 0.00 80 1015.2
20260902093101 26 0 0.0 0.0 0.00 0.00 0.00 80 1015.3
20260902092547 26 0 0.0 0.0 0.00 0.00 0.00 80 1015.4
20260902092047 26 0 0.0 1.6 0.00 0.00 0.00 79 1015.3
20260902091559 26 0 0.0 1.6 0.00 0.00 0.00 79 1015.3
20260902091047 26 0 0.0 1.6 0.00 0.00 0.00 79 1015.4
20260902090549 26 0 0.0 0.0 0.00 0.00 0.00 79 1015.4
20260902090058 26 0 0.0 0.0 0.00 0.00 0.00 79 1015.4
20260902085546 26 0 0.0 0.0 0.00 0.00 0.00 79 1015.4
20260902085047 26 0 0.0 0.0 0.00 0.00 0.00 79 1015.4
20260902084609 26 0 0.0 0.0 0.00 0.00 0.00 78 1015.5
20260902084048 26 0 0.0 0.0 0.00 0.00 0.00 78 1015.4
20260902083547 26 0 0.0 0.0 0.00 0.00 0.00 78 1015.3
20260902083055 26 0 0.0 0.0 0.00 0.00 0.00 79 1015.3
20260902082547 26 0 0.0 0.0 0.00 0.00 0.00 79 1015.4
20260902082046 26 0 0.0 0.0 0.00 0.00 0.00 79 1015.4
20260902081603 26 0 0.0 0.0 0.00 0.00 0.00 78 1015.5
20260902081047 26 0 0.0 0.0 0.00 0.00 0.00 78 1015.5
20260902080547 27 0 0.0 0.0 0.00 0.00 0.00 78 1015.5
20260902080059 27 0 0.0 0.0 0.00 0.00 0.00 77 1015.5
20260902075546 27 0 0.0 0.0 0.00 0.00 0.00 77 1015.4
20260902075048 27 0 0.0 0.0 0.00 0.00 0.00 76 1015.4
20260902074610 27 0 0.0 0.0 0.00 0.00 0.00 76 1015.4
20260902074046 27 0 0.0 0.0 0.00 0.00 0.00 76 1015.5
20260902073547 27 0 0.0 0.0 0.00 0.00 0.00 75 1015.5
20260902073055 27 0 0.0 0.0 0.00 0.00 0.00 75 1015.5
20260902072547 27 0 0.0 0.0 0.00 0.00 0.00 75 1015.5
20260902072047 27 0 0.0 0.0 0.00 0.00 0.00 74 1015.7
20260902071602 28 0 0.0 0.0 0.00 0.00 0.00 74 1015.7
20260902071048 28 0 0.0 0.0 0.00 0.00 0.00 74 1015.7
20260902070547 28 0 0.0 0.0 0.00 0.00 0.00 73 1015.7
20260902065547 28 0 0.0 3.2 0.00 0.00 0.00 73 1015.7
20260902065047 28 0 0.0 1.6 0.00 0.00 0.00 73 1015.7
20260902064558 28 0 0.0 1.6 0.00 0.00 0.00 73 1015.7
20260902064046 28 0 0.0 0.0 0.00 0.00 0.00 73 1015.7
20260902063546 28 0 0.0 0.0 0.00 0.00 0.00 72 1015.6
20260902063116 29 0 0.0 1.6 0.00 0.00 0.00 72 1015.6
20260902062547 29 0 0.0 1.6 0.00 0.00 0.00 71 1015.5
20260902062046 29 0 0.0 1.6 0.00 0.00 0.00 71 1015.6
20260902061608 29 0 0.0 1.6 0.00 0.00 0.00 71 1015.6
20260902061048 29 0 0.0 3.2 0.00 0.00 0.00 71 1015.5
20260902060546 29 0 0.0 4.8 0.00 0.00 0.00 71 1015.6
20260902060113 29 0 1.6 4.8 0.00 0.00 0.00 71 1015.6
20260902055546 29 64 0.0 6.4 0.00 0.00 0.00 70 1015.7
20260902055047 29 0 0.0 6.4 0.00 0.00 0.00 70 1015.7
20260902054611 29 0 0.0 4.8 0.00 0.00 0.00 70 1015.6
20260902054048 30 0 0.0 4.8 0.00 0.00 0.00 70 1015.5
20260902053547 30 63 0.0 4.8 0.00 0.00 0.00 70 1015.6
20260902053107 30 0 0.0 4.8 0.00 0.00 0.00 69 1015.5
20260902052551 30 0 0.0 1.6 0.00 0.00 0.00 69 1015.6
20260902052047 30 0 0.0 4.8 0.00 0.00 0.00 69 1015.5
20260902051603 30 0 0.0 4.8 0.00 0.00 0.00 69 1015.6
20260902051047 30 0 0.0 3.2 0.00 0.00 0.00 68 1015.4
20260902050547 30 0 0.0 3.2 0.00 0.00 0.00 68 1015.5
20260902050103 30 0 0.0 3.2 0.00 0.00 0.00 68 1015.6
20260902045547 30 70 0.0 4.8 0.00 0.00 0.00 67 1015.5
20260902045047 30 0 0.0 6.4 0.00 0.00 0.00 67 1015.5
20260902044618 30 0 1.6 6.4 0.00 0.00 0.00 67 1015.4
20260902044046 30 0 0.0 4.8 0.00 0.00 0.00 66 1015.4
20260902043545 30 82 0.0 4.8 0.00 0.00 0.00 66 1015.5
20260902043109 31 0 0.0 4.8 0.00 0.00 0.00 66 1015.5
20260902042549 31 0 0.0 4.8 0.00 0.00 0.00 65 1015.5
20260902042046 31 66 0.0 4.8 0.00 0.00 0.00 65 1015.5
20260902041608 31 65 0.0 4.8 0.00 0.00 0.00 65 1015.6
20260902041046 31 0 0.0 9.7 0.00 0.00 0.00 64 1015.5
20260902040546 31 62 0.0 9.7 0.00 0.00 0.00 64 1015.4
20260902040105 31 62 1.6 9.7 0.00 0.00 0.00 64 1015.5
20260902035547 31 0 0.0 3.2 0.00 0.00 0.00 63 1015.3
20260902035046 31 0 0.0 6.4 0.00 0.00 0.00 63 1015.3
20260902034609 31 0 0.0 6.4 0.00 0.00 0.00 63 1015.3
20260902034047 31 62 0.0 4.8 0.00 0.00 0.00 62 1015.2
20260902033546 31 0 0.0 4.8 0.00 0.00 0.00 62 1015.1
20260902033054 31 0 0.0 1.6 0.00 0.00 0.00 61 1015.0
20260902032548 31 0 0.0 3.2 0.00 0.00 0.00 61 1015.0
20260902032046 31 0 0.0 3.2 0.00 0.00 0.00 61 1014.9
20260902031600 31 0 0.0 3.2 0.00 0.00 0.00 61 1014.9
20260902031050 32 0 0.0 3.2 0.00 0.00 0.00 60 1014.7
20260902030550 32 0 0.0 1.6 0.00 0.00 0.00 60 1014.7
20260902030058 32 0 0.0 1.6 0.00 0.00 0.00 60 1014.7
20260902025547 32 0 0.0 0.0 0.00 0.00 0.00 60 1014.6
20260902025049 32 0 0.0 0.0 0.00 0.00 0.00 59 1014.4
20260902024604 32 0 0.0 1.6 0.00 0.00 0.00 59 1014.3
20260902024046 32 0 0.0 1.6 0.00 0.00 0.00 60 1014.2
20260902023546 32 0 0.0 3.2 0.00 0.00 0.00 58 1014.1
20260902023059 32 0 0.0 4.8 0.00 0.00 0.00 58 1014.0
20260902022547 32 60 0.0 4.8 0.00 0.00 0.00 58 1013.9
20260902022049 32 0 0.0 1.6 0.00 0.00 0.00 57 1013.8
20260902021552 32 0 0.0 3.2 0.00 0.00 0.00 57 1013.9
20260902021046 32 0 0.0 9.7 0.00 0.00 0.00 57 1013.7
20260902020547 32 0 0.0 9.7 0.00 0.00 0.00 57 1013.7
20260902020059 33 0 0.0 9.7 0.00 0.00 0.00 56 1013.6
20260902015546 33 0 0.0 4.8 0.00 0.00 0.00 56 1013.6
20260902015046 33 0 0.0 4.8 0.00 0.00 0.00 56 1013.5
20260902014556 33 100 0.0 9.7 0.00 0.00 0.00 55 1013.5
20260902014046 33 0 0.0 9.7 0.00 0.00 0.00 55 1013.5
20260902013547 33 0 0.0 12.9 0.00 0.00 0.00 54 1013.4
20260902013101 33 0 0.0 12.9 0.00 0.00 0.00 54 1013.4
20260902012546 33 0 1.6 12.9 0.00 0.00 0.00 53 1013.3
20260902012046 33 60 1.6 12.9 0.00 0.00 0.00 52 1013.1
20260902011603 34 0 0.0 3.2 0.00 0.00 0.00 50 1013.1
20260902011047 34 0 0.0 3.2 0.00 0.00 0.00 49 1013.0
20260902010546 34 0 0.0 4.8 0.00 0.00 0.00 49 1012.9
20260902005546 34 70 0.0 3.2 0.00 0.00 0.00 49 1012.9
20260902005050 34 0 0.0 3.2 0.00 0.00 0.00 49 1012.9
20260902004601 34 70 0.0 3.2 0.00 0.00 0.00 49 1013.0
20260902004046 35 0 0.0 3.2 0.00 0.00 0.00 49 1013.0
20260902003546 35 0 0.0 1.6 0.00 0.00 0.00 50 1013.1
20260902003128 35 0 0.0 4.8 0.00 0.00 0.00 48 1013.2
20260902002546 35 0 0.0 4.8 0.00 0.00 0.00 49 1013.3
20260902002046 35 71 0.0 3.2 0.00 0.00 0.00 49 1013.1
20260902001559 35 0 0.0 3.2 0.00 0.00 0.00 49 1013.1
20260902001047 35 0 0.0 3.2 0.00 0.00 0.00 48 1013.1
20260902000546 35 71 0.0 3.2 0.00 0.00 0.00 49 1013.1
20260902000100 35 71 0.0 3.2 0.00 0.00 0.00 48 1013.1
20260901235546 35 0 0.0 4.8 0.00 0.00 0.00 48 1013.1
20260901235047 35 0 0.0 6.4 0.00 0.00 0.00 48 1013.1
20260901234603 36 0 1.6 6.4 0.00 0.00 0.00 48 1013.1
20260901234046 36 113 0.0 6.4 0.00 0.00 0.00 47 1013.1
20260901233548 36 118 0.0 4.8 0.00 0.00 0.00 47 1013.1
20260901233100 36 0 1.6 4.8 0.00 0.00 0.00 47 1013.0
20260901232546 36 152 1.6 4.8 0.00 0.00 0.00 47 1013.0
20260901232046 36 83 0.0 3.2 0.00 0.00 0.00 47 1012.9
20260901231602 36 0 0.0 4.8 0.00 0.00 0.00 46 1012.9
20260901231046 36 0 0.0 4.8 0.00 0.00 0.00 46 1012.9
20260901230546 36 83 0.0 3.2 0.00 0.00 0.00 46 1012.8
20260901230058 36 0 0.0 4.8 0.00 0.00 0.00 47 1012.9
20260901225547 36 0 0.0 6.4 0.00 0.00 0.00 45 1013.0
20260901225046 36 83 0.0 6.4 0.00 0.00 0.00 46 1013.0
20260901224556 36 0 0.0 3.2 0.00 0.00 0.00 46 1013.0
20260901224046 36 0 0.0 3.2 0.00 0.00 0.00 45 1013.0
20260901223546 36 0 0.0 4.8 0.00 0.00 0.00 46 1013.0
20260901223052 37 130 0.0 4.8 0.00 0.00 0.00 45 1013.0
20260901222547 37 86 1.6 4.8 0.00 0.00 0.00 44 1012.9
20260901222048 37 88 0.0 4.8 0.00 0.00 0.00 45 1013.0
20260901221609 37 71 0.0 4.8 0.00 0.00 0.00 45 1013.1
20260901221047 37 68 0.0 4.8 0.00 0.00 0.00 44 1013.0
20260901220546 37 68 0.0 9.7 0.00 0.00 0.00 43 1013.0
20260901220059 37 0 3.2 9.7 0.00 0.00 0.00 43 1013.0
20260901215547 37 55 0.0 11.3 0.00 0.00 0.00 43 1012.9
20260901215047 37 0 1.6 11.3 0.00 0.00 0.00 43 1013.0
20260901214556 37 54 0.0 11.3 0.00 0.00 0.00 43 1013.1
20260901214046 37 63 1.6 11.3 0.00 0.00 0.00 43 1013.1
20260901213546 37 58 1.6 9.7 0.00 0.00 0.00 45 1013.1
20260901213053 37 0 0.0 9.7 0.00 0.00 0.00 46 1013.1
20260901212546 37 62 1.6 6.4 0.00 0.00 0.00 45 1013.1
20260901212047 37 107 0.0 3.2 0.00 0.00 0.00 46 1013.3
20260901211557 37 0 0.0 4.8 0.00 0.00 0.00 45 1013.3